[[{"header":{"parameterUnit":"m.s-1","parameterCategory":1,"la1":30.2991,"la2":30.254,"lo1":-89.0895,"lo2":-89.0444,"dy":0.0017,"dx":0.0017,"nx":28,"ny":28,"refTime":"2024-04-10T21:00:00:Z","depth":0,"parameterNumber":2,"parameterNumberName":"U-component_of_WINDS"},"data":[0,0,0,0,0,0,0,0,0,0,0,0,0,0,0,0,0,0,0,0,0,0,0,0,0,0,0,0,0,0,0,0,0,0,0,0,0,0,0,0,0,0,0,0,0,0,0,0,0,0,0,0,0,0,0,0,0,0,2.5441,2.5442,0,2.5535,2.5536,2.5537,2.5568,2.5567,2.5567,2.5566,2.5665,2.5668,2.5671,0,0,0,0,0,0,0,0,0,0,0,0,0,2.5289,2.5292,2.5441,2.5442,2.5443,2.5535,2.5536,2.5538,2.5568,2.5567,2.5567,2.5566,2.5664,2.5668,2.5671,0,0,0,0,0,0,0,0,0,0,0,0,0,2.5367,2.5293,2.544,2.5469,2.5473,2.5535,2.5536,2.5538,2.5568,2.5567,2.5566,2.5566,2.5663,2.5667,2.5672,2.5713,0,0,2.5686,2.5688,0,0,0,0,0,0,0,0,2.5362,2.5372,2.5464,2.5467,2.5471,2.5539,2.5519,2.5597,2.5568,2.5532,2.5566,2.5566,2.5624,2.5631,2.5651,2.5718,2.5722,2.5686,2.5689,2.5691,2.5692,0,0,0,0,0,0,0,2.5357,2.5368,2.5478,2.5465,2.547,2.5478,2.5488,2.5534,2.558,2.5535,2.5537,2.5548,2.5626,2.5646,2.5653,2.5723,2.5686,2.569,2.5693,2.5695,2.5831,2.5832,0,0,0,0,0,0,2.5346,2.5364,2.5475,2.5481,2.5414,2.5481,2.5493,2.5518,2.558,2.5589,2.5548,2.5549,2.5639,2.5648,2.5657,2.571,2.5691,2.5695,2.5698,2.583,2.5831,2.5832,0,0,0,0,0,0,2.5343,2.5356,2.5471,2.5423,2.5438,2.5485,2.5513,2.552,2.5541,2.559,2.5599,2.5561,2.5639,2.565,2.5699,2.5714,2.5697,2.5701,2.5829,2.5831,2.5832,2.5817,0,0,0,0,0,0,2.5338,2.5354,2.537,2.5423,2.5441,2.5511,2.5513,2.5522,2.5548,2.555,2.5604,2.5612,2.5639,2.5692,2.5704,2.572,2.5705,2.5828,2.583,2.5831,2.5816,2.5818,2.5819,0,0,0,0,0,2.5333,2.5362,2.537,2.5383,2.5461,2.5512,2.5522,2.5552,2.5549,2.5566,2.5598,2.5611,2.5711,2.5697,2.571,2.5728,2.5827,2.5829,2.5831,2.5816,2.5817,2.5819,0,0,0,0,0,0,2.5309,2.5369,2.5379,2.5426,2.5463,2.5517,2.5538,2.5552,2.5591,2.5591,2.5627,2.5639,2.5686,2.5712,2.5695,2.5773,2.577,2.5774,2.5753,2.5755,2.5757,2.5749,2.5709,0,0,0,0,0,2.5309,2.5345,2.5396,2.5432,2.545,2.5491,2.5514,2.5534,2.5575,2.5591,2.5626,2.5666,2.5707,2.5732,2.5772,2.5821,2.5834,2.584,2.5841,2.5842,2.5845,2.5875,2.5878,2.5839,2.5839,2.5839,0,0,2.531,2.5347,2.5367,2.5428,2.546,2.5497,2.5504,2.5543,2.5571,2.5597,2.5645,2.5673,2.572,2.5768,2.5792,2.5792,2.5859,2.5844,2.5844,2.5848,2.5877,2.5881,2.5884,2.584,2.584,2.584,0,0,2.533,2.5361,2.5396,2.5427,2.5475,2.5502,2.551,2.5562,2.5581,2.563,2.5651,2.5686,2.5754,2.5787,2.5813,2.5848,2.5862,2.586,2.5867,2.5895,2.5898,2.5901,2.5915,2.5919,2.5864,2.5864,2.5864,0,2.5325,2.5381,2.5412,2.545,2.5477,2.5502,2.5538,2.5568,2.5626,2.5644,2.5643,2.5732,2.5765,2.5823,2.5831,2.5851,2.5863,2.5854,2.5895,2.5898,2.5901,2.5915,2.592,2.5863,2.5863,2.5863,2.5864,0,2.5374,2.5412,2.5435,2.549,2.552,2.5557,2.5594,2.5621,2.5639,2.5666,2.5717,2.5758,2.5807,2.5822,2.584,2.5884,2.5882,2.5888,2.5886,2.5904,2.5918,2.5923,2.5863,2.5863,2.5863,2.5863,0,0,2.5381,2.5454,2.5462,2.5488,2.5543,2.5574,2.5613,2.5661,2.5684,2.5724,2.5758,2.5817,2.5822,2.5852,2.5874,2.5898,2.5925,2.5901,2.5903,2.5905,2.5977,2.5973,2.5979,2.5935,2.5936,2.5937,2.5974,0,2.5409,2.5478,2.5508,2.5565,2.5602,2.5627,2.5661,2.5699,2.5727,2.5763,2.5794,2.5835,2.5839,2.5857,2.5883,2.5916,2.594,2.5914,2.5968,2.597,2.5956,2.5985,2.5981,2.6014,2.5979,2.598,2.5981,0,2.545,2.5491,2.5551,2.5603,2.562,2.565,2.5697,2.5731,2.5776,2.5794,2.5828,2.5849,2.5892,2.5887,2.5949,2.593,2.5954,2.5974,2.5976,2.5983,2.5976,2.5993,2.6025,2.603,2.5989,2.5988,2.5988,0,2.5451,2.552,2.5565,2.5587,2.5649,2.5669,2.5696,2.574,2.5768,2.581,2.5828,2.5875,2.5901,2.5937,2.597,2.5964,2.6029,2.6027,2.6047,2.6046,2.6059,2.6058,2.6096,2.6074,2.6074,2.6074,2.6074,0,2.548,2.5516,2.5567,2.5594,2.5636,2.5671,2.5712,2.5741,2.578,2.5815,2.584,2.5872,2.5914,2.5953,2.598,2.6027,2.6038,2.6055,2.6062,2.6053,2.6051,2.607,2.6069,2.6075,2.6075,2.6075,2.6074,0,2.5487,2.5522,2.5574,2.5628,2.5643,2.5671,2.5719,2.5747,2.5776,2.5821,2.5833,2.5879,2.5926,2.5963,2.6024,2.6042,2.6092,2.6099,2.6077,2.6081,2.6099,2.6097,2.615,2.616,2.613,2.6131,2.6131,0,2.5503,2.5531,2.5589,2.5614,2.5641,2.568,2.5709,2.5745,2.5774,2.5828,2.5851,2.5899,2.594,2.6013,2.6053,2.61,2.6109,2.6125,2.6117,2.6107,2.6111,2.6109,2.6113,2.6126,2.6126,2.6126,2.6126,0,2.5528,2.5545,2.5584,2.5631,2.5664,2.5702,2.5741,2.5761,2.5804,2.5836,2.5883,2.5915,2.5978,2.6026,2.6078,2.6107,2.6124,2.6128,2.6136,2.6127,2.6113,2.6122,2.608,2.6127,2.6127,2.6127,2.6127,2.6127,2.5541,2.5568,2.5613,2.5657,2.569,2.5727,2.5757,2.579,2.583,2.5884,2.5903,2.5953,2.5999,2.607,2.6099,2.614,2.6141,2.6151,2.6154,2.6156,2.6156,2.6107,2.6149,2.6149,2.6149,2.6149,2.6149,0,2.5568,2.5599,2.5639,2.5693,2.5728,2.5741,2.5785,2.5814,2.5857,2.5898,2.5938,2.5994,2.6042,2.6085,2.6135,2.6159,2.6169,2.6171,2.617,2.6177,2.6151,2.614,2.6163,2.6163,2.6163,2.6163,2.6163,2.6163,2.5587,2.5634,2.5656,2.572,2.5751,2.5799,2.5824,2.5858,2.5891,2.5952,2.5992,2.602,2.6063,2.6116,2.6161,2.6173,2.619,2.6191,2.6205,2.618,2.6178,2.6177,2.6167,2.6194,2.6194,2.6227,2.6228,2.6228]},{"header":{"parameterUnit":"m.s-1","parameterCategory":1,"la1":30.2991,"la2":30.254,"lo1":-89.0895,"lo2":-89.0444,"dy":0.0017,"dx":0.0017,"nx":28,"ny":28,"refTime":"2024-04-10T21:00:00:Z","depth":0,"parameterNumber":3,"parameterNumberName":"V-component_of_WINDS"},"data":[0,0,0,0,0,0,0,0,0,0,0,0,0,0,0,0,0,0,0,0,0,0,0,0,0,0,0,0,0,0,0,0,0,0,0,0,0,0,0,0,0,0,0,0,0,0,0,0,0,0,0,0,0,0,0,0,0,0,-2.7893,-2.7894,0,-2.7931,-2.7932,-2.7932,-2.7964,-2.7964,-2.7964,-2.7965,-2.8001,-2.8001,-2.8002,0,0,0,0,0,0,0,0,0,0,0,0,0,-2.7847,-2.7848,-2.7893,-2.7894,-2.7894,-2.7931,-2.7932,-2.7932,-2.7964,-2.7964,-2.7964,-2.7965,-2.8,-2.8001,-2.8002,0,0,0,0,0,0,0,0,0,0,0,0,0,-2.7874,-2.7848,-2.7893,-2.7915,-2.7917,-2.7931,-2.7932,-2.7933,-2.7964,-2.7964,-2.7965,-2.7965,-2.8,-2.8001,-2.8002,-2.7998,0,0,-2.8005,-2.8005,0,0,0,0,0,0,0,0,-2.7873,-2.7876,-2.7911,-2.7913,-2.7916,-2.7943,-2.7929,-2.7954,-2.7963,-2.7946,-2.7965,-2.7965,-2.7981,-2.7984,-2.7989,-2.7999,-2.8001,-2.8005,-2.8006,-2.8006,-2.8006,0,0,0,0,0,0,0,-2.7871,-2.7875,-2.7908,-2.7911,-2.7914,-2.7922,-2.7926,-2.7934,-2.796,-2.7947,-2.795,-2.7954,-2.7982,-2.7988,-2.7991,-2.8002,-2.8005,-2.8006,-2.8006,-2.8007,-2.8013,-2.8012,0,0,0,0,0,0,-2.7866,-2.7873,-2.7907,-2.791,-2.7895,-2.7922,-2.7927,-2.7934,-2.796,-2.7964,-2.7953,-2.7955,-2.7987,-2.7989,-2.7992,-2.7991,-2.8006,-2.8007,-2.8008,-2.8013,-2.8013,-2.8012,0,0,0,0,0,0,-2.7865,-2.7869,-2.7906,-2.7892,-2.7897,-2.7923,-2.793,-2.7934,-2.7941,-2.7965,-2.7969,-2.7955,-2.7987,-2.7991,-2.7997,-2.7992,-2.8007,-2.8008,-2.8014,-2.8013,-2.8012,-2.7986,0,0,0,0,0,0,-2.7863,-2.7868,-2.7867,-2.7892,-2.7898,-2.791,-2.7929,-2.7935,-2.7943,-2.7945,-2.7967,-2.7971,-2.7988,-2.7995,-2.7998,-2.7994,-2.8009,-2.8014,-2.8013,-2.8013,-2.7988,-2.7985,-2.7982,0,0,0,0,0,-2.7862,-2.7857,-2.7867,-2.787,-2.7897,-2.791,-2.7913,-2.7933,-2.7942,-2.7941,-2.7957,-2.7971,-2.7992,-2.7996,-2.7999,-2.7995,-2.8015,-2.8014,-2.8013,-2.7989,-2.7985,-2.7982,0,0,0,0,0,0,-2.7829,-2.786,-2.7871,-2.7874,-2.7889,-2.7915,-2.7914,-2.7928,-2.794,-2.7942,-2.7965,-2.797,-2.7974,-2.7985,-2.7988,-2.7994,-2.8005,-2.8005,-2.7986,-2.7983,-2.798,-2.7978,-2.801,0,0,0,0,0,-2.7822,-2.7831,-2.7857,-2.7857,-2.7865,-2.7888,-2.7894,-2.7909,-2.7925,-2.7931,-2.7947,-2.7962,-2.7972,-2.7978,-2.7989,-2.799,-2.7996,-2.7989,-2.7986,-2.7984,-2.7983,-2.7987,-2.7984,-2.8009,-2.8009,-2.8009,0,0,-2.7808,-2.7826,-2.783,-2.7851,-2.7865,-2.7873,-2.7893,-2.79,-2.7907,-2.7932,-2.794,-2.7952,-2.797,-2.7974,-2.7977,-2.7983,-2.7978,-2.7982,-2.798,-2.7981,-2.7985,-2.7983,-2.7981,-2.8008,-2.8009,-2.8009,0,0,-2.7786,-2.7801,-2.7803,-2.7817,-2.7838,-2.7854,-2.7855,-2.7879,-2.7889,-2.7897,-2.7917,-2.7925,-2.7941,-2.7954,-2.7963,-2.795,-2.7963,-2.7952,-2.7938,-2.7941,-2.7939,-2.7938,-2.7934,-2.7933,-2.7952,-2.7951,-2.7951,0,-2.7766,-2.778,-2.7803,-2.781,-2.782,-2.7844,-2.7848,-2.786,-2.7882,-2.7888,-2.7895,-2.7919,-2.7932,-2.7941,-2.7938,-2.7944,-2.7946,-2.795,-2.7938,-2.7937,-2.7935,-2.7933,-2.7931,-2.795,-2.795,-2.795,-2.7951,0,-2.7754,-2.7764,-2.7764,-2.7787,-2.7797,-2.7802,-2.7826,-2.7833,-2.7847,-2.7862,-2.7872,-2.7889,-2.7905,-2.7908,-2.7921,-2.7919,-2.7923,-2.7934,-2.7946,-2.7931,-2.7929,-2.7928,-2.7948,-2.7949,-2.7949,-2.7949,0,0,-2.7711,-2.775,-2.7749,-2.7761,-2.7787,-2.7795,-2.7802,-2.7819,-2.7825,-2.784,-2.7847,-2.7862,-2.7874,-2.7884,-2.7898,-2.7901,-2.7892,-2.7912,-2.7913,-2.7908,-2.7893,-2.7885,-2.7883,-2.7901,-2.7901,-2.7901,-2.7892,0,-2.7695,-2.771,-2.7732,-2.774,-2.775,-2.7775,-2.7781,-2.7798,-2.7813,-2.7824,-2.784,-2.7851,-2.7864,-2.7871,-2.7875,-2.7892,-2.7889,-2.7893,-2.7908,-2.7908,-2.7903,-2.7882,-2.7873,-2.7863,-2.7891,-2.7891,-2.789,0,-2.7677,-2.7694,-2.7703,-2.773,-2.7735,-2.7741,-2.776,-2.7769,-2.7789,-2.78,-2.7813,-2.783,-2.7839,-2.7851,-2.7864,-2.7867,-2.7874,-2.7884,-2.7884,-2.7886,-2.7899,-2.7884,-2.786,-2.7859,-2.7889,-2.7889,-2.7889,0,-2.7647,-2.7671,-2.768,-2.7689,-2.7721,-2.7725,-2.7738,-2.7759,-2.7769,-2.7785,-2.7792,-2.7808,-2.7817,-2.783,-2.7851,-2.7857,-2.7863,-2.7876,-2.7873,-2.7872,-2.7873,-2.7872,-2.785,-2.7876,-2.7876,-2.7876,-2.7876,0,-2.7627,-2.7631,-2.7668,-2.7673,-2.768,-2.7706,-2.7711,-2.7727,-2.7746,-2.7755,-2.7777,-2.7785,-2.7813,-2.7824,-2.7841,-2.7851,-2.7854,-2.7864,-2.7868,-2.7862,-2.7861,-2.7867,-2.7869,-2.7876,-2.7876,-2.7876,-2.7876,0,-2.7594,-2.7618,-2.763,-2.766,-2.7668,-2.7672,-2.7698,-2.7705,-2.7722,-2.7734,-2.7738,-2.7765,-2.778,-2.7803,-2.7824,-2.7836,-2.7843,-2.785,-2.7837,-2.7839,-2.7836,-2.7836,-2.7818,-2.7817,-2.7842,-2.7842,-2.7842,0,-2.7579,-2.7584,-2.7616,-2.7625,-2.7638,-2.7651,-2.7662,-2.7688,-2.7698,-2.7723,-2.7727,-2.7744,-2.7759,-2.7782,-2.7804,-2.7821,-2.7828,-2.7821,-2.7831,-2.7826,-2.783,-2.7829,-2.7831,-2.7818,-2.7818,-2.7818,-2.7817,0,-2.7552,-2.7564,-2.7579,-2.76,-2.7612,-2.7629,-2.7646,-2.7652,-2.7682,-2.7693,-2.7709,-2.7721,-2.7745,-2.7762,-2.7782,-2.7796,-2.7812,-2.7814,-2.7815,-2.7809,-2.7802,-2.7807,-2.7831,-2.7814,-2.7815,-2.7815,-2.7815,-2.7815,-2.7528,-2.7535,-2.7559,-2.7576,-2.7592,-2.7609,-2.7618,-2.7638,-2.7652,-2.7674,-2.7689,-2.7705,-2.7727,-2.7756,-2.7769,-2.7783,-2.7789,-2.7789,-2.779,-2.7789,-2.7788,-2.7799,-2.7786,-2.7786,-2.7786,-2.7787,-2.7787,0,-2.7503,-2.7521,-2.7536,-2.7561,-2.7575,-2.7591,-2.7612,-2.7622,-2.7636,-2.7656,-2.7671,-2.7692,-2.7709,-2.7733,-2.7752,-2.7758,-2.7766,-2.7762,-2.7762,-2.7766,-2.778,-2.7779,-2.7756,-2.7756,-2.7756,-2.7756,-2.7756,-2.7756,-2.7492,-2.7504,-2.752,-2.7541,-2.7558,-2.7576,-2.7587,-2.7602,-2.7619,-2.7641,-2.7656,-2.7672,-2.7694,-2.7715,-2.7732,-2.7739,-2.7745,-2.774,-2.7748,-2.7761,-2.7764,-2.7767,-2.7766,-2.774,-2.774,-2.7733,-2.7733,-2.7733]}]]